KB6OQJ Weather Reports


Display with metric or nautical units.
time (UTC)temp
F
wind
direction
speed
MPH
gust
MPH
rain 1hr
in
rain 24hr
in
rain mn
in
humidity
%
barometer
mb
20260508183004 67 220 7.0 12.0 0.00 0.00 0.00 54 845.9
20260508182004 66 221 6.0 12.0 0.00 0.00 0.00 47 845.9
20260508181004 65 303 1.0 10.0 0.00 0.00 0.00 26 845.9
20260508180003 62 224 7.0 12.0 0.00 0.00 0.00 3 845.9
20260508175004 61 252 2.0 12.0 0.00 0.00 0.00 3 845.9
20260508174003 60 211 3.0 7.0 0.00 0.00 0.00 3 845.9
20260508172004 57 3 0.0 0.0 0.00 0.00 0.00 3 845.9
20260508162004 54 131 0.0 0.0 0.00 0.00 0.00 3 884.3
20260508155004 54 119 0.0 0.0 0.00 0.00 0.00 3 884.3
20260508154004 54 120 0.0 0.0 0.00 0.00 0.00 3 884.3
20260508151004 53 121 0.0 3.0 0.00 0.00 0.00 3 884.3
20260508150004 53 121 0.0 0.0 0.00 0.00 0.00 3 884.3
20260508145004 53 121 0.0 0.0 0.00 0.00 0.00 3 884.3
20260508143004 53 0 0.0 0.0 0.00 0.00 0.00 3 884.3
20260508142004 53 0 0.0 0.0 0.00 0.00 0.00 3 884.3
20260508141004 53 0 0.0 0.0 0.00 0.00 0.00 3 884.3
20260508140004 53 0 0.0 0.0 0.00 0.00 0.00 3 884.3
20260508135004 53 0 0.0 0.0 0.00 0.00 0.00 3 884.3
20260508130004 53 0 0.0 0.0 0.00 0.00 0.00 3 884.3
20260508125004 53 0 0.0 0.0 0.00 0.00 0.00 3 917.4
20260508122004 53 0 0.0 0.0 0.00 0.00 0.00 3 917.4
20260508121004 53 0 0.0 0.0 0.00 0.00 0.00 3 917.4
20260508115004 53 12 0.0 0.0 0.00 0.00 0.00 3 917.4
20260508114004 52 273 0.0 0.0 0.00 0.00 0.00 3 917.4
20260508113004 52 273 0.0 0.0 0.00 0.00 0.00 3 917.4
20260508112004 52 273 0.0 0.0 0.00 0.00 0.00 3 917.4
20260508111003 53 273 0.0 0.0 0.00 0.00 0.00 3 917.4
20260508110004 52 273 0.0 0.0 0.00 0.00 0.00 3 917.4
20260508105004 52 273 0.0 0.0 0.00 0.00 0.00 3 917.4
20260508104003 53 273 0.0 0.0 0.00 0.00 0.00 3 917.4
20260508103004 53 273 0.0 0.0 0.00 0.00 0.00 3 917.4
20260508102004 53 273 0.0 0.0 0.00 0.00 0.00 3 917.4
20260508100004 53 273 0.0 0.0 0.00 0.00 0.00 3 917.4
20260508095004 53 273 0.0 0.0 0.00 0.00 0.00 3 917.4
20260508094004 53 273 0.0 0.0 0.00 0.00 0.00 3 917.4
20260508093004 53 273 0.0 0.0 0.00 0.00 0.00 3 917.4
20260508092004 53 273 0.0 0.0 0.00 0.00 0.00 3 917.4
20260508091004 53 273 0.0 0.0 0.00 0.00 0.00 3 917.4
20260508090004 53 273 0.0 0.0 0.00 0.00 0.00 3 917.4
20260508084004 53 273 0.0 0.0 0.00 0.00 0.00 5 917.4
20260508083004 53 273 0.0 0.0 0.00 0.00 0.00 7 917.4
20260508082003 53 273 0.0 0.0 0.00 0.00 0.00 10 917.4
20260508081003 53 273 0.0 0.0 0.00 0.00 0.00 12 917.4
20260508080004 53 273 0.0 3.0 0.00 0.00 0.00 15 917.4
20260508074003 53 273 0.0 0.0 0.00 0.00 0.00 21 917.4
20260508073003 53 273 0.0 0.0 0.00 0.00 0.00 23 917.4
20260508072004 53 273 0.0 0.0 0.00 0.00 0.00 25 917.4
20260508071004 54 273 0.0 0.0 0.00 0.00 0.00 26 917.4
20260508070004 54 273 0.0 0.0 0.00 0.00 0.00 26 917.4
20260508065004 54 273 0.0 0.0 0.00 0.00 0.00 27 917.4
20260508064004 54 273 0.0 0.0 0.00 0.00 0.00 28 917.4
20260508063003 55 273 0.0 0.0 0.00 0.00 0.00 29 917.4
20260508062003 55 273 0.0 3.0 0.00 0.00 0.00 31 917.4
20260508061004 55 273 0.0 0.0 0.00 0.00 0.00 31 917.4
20260508060004 55 273 0.0 3.0 0.00 0.00 0.00 34 917.4
20260508055004 55 273 0.0 0.0 0.00 0.00 0.00 36 917.4
20260508054004 55 273 0.0 0.0 0.00 0.00 0.00 37 917.4
20260508053004 56 273 0.0 0.0 0.00 0.00 0.00 37 917.4
20260508051004 56 273 0.0 0.0 0.00 0.00 0.00 38 917.4
20260508050004 56 273 0.0 0.0 0.00 0.00 0.00 38 917.4
20260508045004 57 273 0.0 0.0 0.00 0.00 0.00 38 917.4
20260508044004 57 273 0.0 0.0 0.00 0.00 0.00 38 917.4
20260508043004 57 273 0.0 0.0 0.00 0.00 0.00 37 917.4
20260508042004 58 273 0.0 0.0 0.00 0.00 0.00 39 917.4
20260508041004 58 274 2.0 3.0 0.00 0.00 0.00 41 893.2
20260508040003 58 266 0.0 3.0 0.00 0.00 0.00 43 893.2
20260508035003 59 271 1.0 3.0 0.00 0.00 0.00 45 879.1
20260508034004 59 279 0.0 3.0 0.00 0.00 0.00 48 879.1
20260508033004 59 301 0.0 3.0 0.00 0.00 0.00 51 879.1
20260508032004 60 284 0.0 8.0 0.00 0.00 0.00 54 891.6
20260508031004 60 284 1.0 7.0 0.00 0.00 0.00 56 891.6
20260508030003 61 273 1.0 9.0 0.00 0.00 0.00 59 891.6
20260508025004 62 304 4.0 14.0 0.00 0.00 0.00 61 891.6
20260508024003 63 300 1.0 10.0 0.00 0.00 0.00 62 864.3
20260508023004 63 293 2.0 10.0 0.00 0.00 0.00 64 864.3
20260508022004 64 294 2.0 12.0 0.00 0.00 0.00 65 864.3
20260508021004 65 295 3.0 14.0 0.00 0.00 0.00 65 864.3
20260508014004 69 298 3.0 12.0 0.00 0.00 0.00 63 876.8
20260508013004 70 309 5.0 12.0 0.00 0.00 0.00 62 876.8
20260508012004 71 287 5.0 12.0 0.00 0.00 0.00 62 876.8
20260508011004 71 304 2.0 12.0 0.00 0.00 0.00 61 876.8
20260508010003 72 283 6.0 12.0 0.00 0.00 0.00 61 876.8
20260508005003 73 266 3.0 13.0 0.00 0.00 0.00 60 876.8
20260508003005 75 307 3.0 12.0 0.00 0.00 0.00 58 941.2
20260508002004 75 290 3.0 12.0 0.00 0.00 0.00 57 941.2
20260508001004 76 317 3.0 14.0 0.00 0.00 0.00 57 889.5
20260508000004 76 311 3.0 12.0 0.00 0.00 0.00 57 889.5
20260507235004 77 295 6.0 13.0 0.00 0.00 0.00 55 889.5
20260507234003 78 301 5.0 14.0 0.00 0.00 0.00 54 889.5
20260507233003 79 295 4.0 14.0 0.00 0.00 0.00 53 889.5
20260507232004 79 316 4.0 14.0 0.00 0.00 0.00 53 889.5
20260507231004 79 286 4.0 13.0 0.00 0.00 0.00 53 889.5
20260507230004 79 312 2.0 12.0 0.00 0.00 0.00 54 889.5
20260507225004 79 302 2.0 14.0 0.00 0.00 0.00 54 889.5
20260507224004 79 298 3.0 13.0 0.00 0.00 0.00 54 889.5